"Pseudo-MPEC" for P10Ua4U

Created 2019 Nov 13 9:07:12 UT using Find_Orb

Click here for an explanation of pseudo-MPECs

 
 Astrometry: 
     P10Ua4U  C2019 11 05u_(VG#[*P,AstrometryYR3cdredacted;Xqhj#VVXs:a74%U0e7F51
     P10Ua4U  C2019 11 05@2:VjclickbO.nbL3@C!d1uY*itA$TQhereh?h.+)d!MQ6O9bb4+F51
     P10Ua4U  C2019 11 05cR`NM?X=mTuG+cfforMqK06M^$tkq\-_AJ8'xeW\nexplanationF51

Station data:
(F51) Pan-STARRS 1, Haleakala  (N20.707235 W156.255910)  US/Hawaii.
   Observers N. Primak, A. Schultz, S. Watters, J. Thiel, T. Goggia. Measurer
   PS1 Science Consortium. 1.8-m Ritchey-Chrétien + CCD.

Orbital elements:  P10Ua4U
   Perihelion 2019 Nov 21.976932 +/- 39.9 TT = 23:26:47 (JD 2458809.476932)
Epoch 2019 Nov  6.0 TT = JDT 2458793.5   Earth MOID: 0.2335   Ma: 0.0096
M 356.22610105 +/- 16               (J2000 ecliptic)          AutoNEOCP
n   0.23620923 +/- 0.24             Peri.   31.92206 +/- 70
a   2.59181978 +/- 1.77             Node    25.78046 +/- 57
e   0.5289928 +/- 0.246             Incl.    2.27924 +/- 1.1
P   4.17                   H 24.4   G  0.15   U 11.8  SR
q 1.22076552 +/- 0.235    Q 3.96287404 +/- 54.4
From 3 observations 2019 Nov. 5 (35.3 min); mean residual 0".06
Residuals in arcseconds: 
191105 F51  .06-  .02+    191105 F51  .11+  .05-    191105 F51  .06-  .02+    

Ephemerides (geocentric):
Date (UTC) HH   RA              Dec         delta   r     elong  mag " sig PA
---- -- -- --  -------------   -----------  ------ ------ -----  --- ---- ---
2019 11 13 09  02 55 57.292   +21 49 38.93  .23588 1.2246 174.5 22.1  49d   9
2019 11 13 10  02 56 01.226   +21 50 23.16  .23585 1.2246 174.5 22.1  49d   9
2019 11 13 11  02 56 05.162   +21 51 07.37  .23583 1.2246 174.5 22.1  49d   9
2019 11 13 12  02 56 09.100   +21 51 51.56  .23581 1.2245 174.5 22.1  49d   9
2019 11 13 13  02 56 13.041   +21 52 35.75  .23579 1.2245 174.5 22.1  49d   9
2019 11 13 14  02 56 16.984   +21 53 19.92  .23577 1.2245 174.4 22.1  50d   9
2019 11 13 15  02 56 20.930   +21 54 04.08  .23574 1.2244 174.4 22.1  50d   9
2019 11 13 16  02 56 24.878   +21 54 48.23  .23572 1.2244 174.4 22.1  50d   9
2019 11 13 17  02 56 28.829   +21 55 32.36  .23570 1.2243 174.4 22.1  50d   9
2019 11 13 18  02 56 32.782   +21 56 16.48  .23568 1.2243 174.4 22.1  50d   9
2019 11 13 19  02 56 36.737   +21 57 00.59  .23566 1.2243 174.4 22.1  50d   9
2019 11 13 20  02 56 40.695   +21 57 44.69  .23564 1.2242 174.3 22.1  50d   9
2019 11 13 21  02 56 44.655   +21 58 28.77  .23562 1.2242 174.3 22.1  50d   9
2019 11 13 22  02 56 48.617   +21 59 12.84  .23560 1.2242 174.3 22.1  50d   9
2019 11 13 23  02 56 52.582   +21 59 56.90  .23558 1.2241 174.3 22.1  50d   9
2019 11 14 00  02 56 56.550   +22 00 40.94  .23556 1.2241 174.3 22.1  50d   9
2019 11 14 01  02 57 00.520   +22 01 24.97  .23554 1.2241 174.3 22.1  51d  10
2019 11 14 02  02 57 04.492   +22 02 08.98  .23552 1.2240 174.2 22.1  51d  10
2019 11 14 03  02 57 08.466   +22 02 52.99  .23550 1.2240 174.2 22.1  51d  10
2019 11 14 04  02 57 12.443   +22 03 36.97  .23549 1.2240 174.2 22.1  51d  10
2019 11 14 05  02 57 16.423   +22 04 20.95  .23547 1.2239 174.2 22.1  51d  10
2019 11 14 06  02 57 20.404   +22 05 04.91  .23545 1.2239 174.2 22.1  51d  10
2019 11 14 07  02 57 24.389   +22 05 48.85  .23543 1.2239 174.1 22.1  51d  10
2019 11 14 08  02 57 28.375   +22 06 32.78  .23541 1.2238 174.1 22.1  51d  10
2019 11 14 09  02 57 32.364   +22 07 16.70  .23540 1.2238 174.1 22.1  51d  10
2019 11 14 10  02 57 36.356   +22 08 00.61  .23538 1.2238 174.1 22.1  51d  10
2019 11 14 11  02 57 40.349   +22 08 44.49  .23536 1.2237 174.1 22.1  51d  10
2019 11 14 12  02 57 44.345   +22 09 28.37  .23534 1.2237 174.0 22.1  51d  10
2019 11 14 13  02 57 48.344   +22 10 12.23  .23533 1.2237 174.0 22.1  51d  10
2019 11 14 14  02 57 52.345   +22 10 56.07  .23531 1.2236 174.0 22.1  51d  10
2019 11 14 15  02 57 56.348   +22 11 39.90  .23529 1.2236 174.0 22.1  51d  10
2019 11 14 16  02 58 00.354   +22 12 23.71  .23528 1.2236 174.0 22.1  51d  10
2019 11 14 17  02 58 04.362   +22 13 07.51  .23526 1.2235 174.0 22.1  51d  10
2019 11 14 18  02 58 08.373   +22 13 51.30  .23525 1.2235 173.9 22.1  51d  10
2019 11 14 19  02 58 12.386   +22 14 35.07  .23523 1.2235 173.9 22.1  51d  10
2019 11 14 20  02 58 16.401   +22 15 18.82  .23521 1.2234 173.9 22.1  51d  10
2019 11 14 21  02 58 20.419   +22 16 02.56  .23520 1.2234 173.9 22.1  51d  10
2019 11 14 22  02 58 24.439   +22 16 46.28  .23518 1.2234 173.9 22.1  51d  10
2019 11 14 23  02 58 28.462   +22 17 29.99  .23517 1.2233 173.8 22.1  51d  10
2019 11 15 00  02 58 32.486   +22 18 13.68  .23515 1.2233 173.8 22.1  51d  10
2019 11 15 01  02 58 36.514   +22 18 57.35  .23514 1.2233 173.8 22.1  52d  10
2019 11 15 02  02 58 40.543   +22 19 41.01  .23513 1.2233 173.8 22.1  52d  10
2019 11 15 03  02 58 44.575   +22 20 24.65  .23511 1.2232 173.8 22.1  52d  10
2019 11 15 04  02 58 48.610   +22 21 08.28  .23510 1.2232 173.7 22.1  52d  10
2019 11 15 05  02 58 52.647   +22 21 51.89  .23508 1.2232 173.7 22.1  52d  10
2019 11 15 06  02 58 56.686   +22 22 35.48  .23507 1.2231 173.7 22.1  52d  10
2019 11 15 07  02 59 00.728   +22 23 19.06  .23506 1.2231 173.7 22.1  52d  10
2019 11 15 08  02 59 04.772   +22 24 02.62  .23504 1.2231 173.7 22.1  52d  10